Tracking 31028 objects as of 17-Jul-2025
HD Live streaming from Space Station
objects crossing your sky now

COSMOS 839 DEB

Track COSMOS 839 DEB now!
10-day predictions


NORAD ID: 13947
Int'l Code: 1976-067BF
Perigee: 1,047.4 km
Apogee: 2,114.0 km
Inclination: 65.7 °
Period: 117.6 minutes
Semi major axis: 7951 km
RCS: 0.0075 m2 (small)
Launch date: July 8, 1976
Source: Commonwealth of Independent States (former USSR) (CIS)
Launch site: PLESETSK MISSILE AND SPACE COMPLEX (PKMTR)

Note: This is SATELLITE DEBRIS
Your satellite tracking list
Your tracking list is empty




NASA's NSSDC Master Catalog

Two Line Element Set (TLE):
1 13947U 76067BF  25197.20272411 -.00000010  00000-0  19537-3 0  9993
2 13947  65.7169 264.2081 0670681 178.7887 222.2383 12.24369112503165
Source of the keplerian elements: AFSPC